EW1970 Weather Reports


Display with metric or nautical units.
time (UTC)temp
F
wind
direction
speed
MPH
gust
MPH
rain 1hr
in
rain 24hr
in
rain mn
in
humidity
%
barometer
mb
20260508021521 61 62 0.0 2.0 0.00 0.00 0.00 80 1014.3
20260508020003 61 74 0.0 3.0 0.00 0.00 0.00 80 1014.6
20260508014504 61 73 0.0 2.0 0.00 0.00 0.00 78 1014.7
20260508013011 61 78 0.0 2.0 0.00 0.00 0.00 79 1014.5
20260508011504 61 99 0.0 2.0 0.00 0.00 0.00 79 1014.5
20260508010007 62 78 0.0 3.0 0.00 0.00 0.00 77 1014.9
20260508004508 62 51 0.0 2.0 0.00 0.00 0.00 79 1015.1
20260508003011 63 360 0.0 2.0 0.00 0.00 0.00 74 1015.2
20260508001514 63 334 0.0 2.0 0.00 0.00 0.00 77 1015.4
20260508000008 63 331 0.0 2.0 0.00 0.00 0.00 78 1015.9
20260507234509 63 51 0.0 2.0 0.00 0.00 0.00 77 1015.9
20260507233008 64 11 0.0 2.0 0.00 0.00 0.00 73 1016.1
20260507231524 64 93 0.0 2.0 0.00 0.00 0.00 75 1015.5
20260507230019 65 42 0.0 4.0 0.00 0.00 0.00 73 1016.1
20260507224507 65 101 0.0 4.0 0.00 0.00 0.00 74 1015.6
20260507223005 65 340 1.0 6.0 0.00 0.00 0.00 72 1016.3
20260507221514 65 100 0.0 8.0 0.00 0.00 0.00 73 1016.4
20260507220022 65 202 0.0 8.0 0.00 0.00 0.00 69 1016.4
20260507214521 66 73 1.0 5.0 0.00 0.00 0.00 70 1017.1
20260507213004 67 36 2.0 5.0 0.00 0.00 0.00 71 1017.2
20260507211511 65 169 1.0 4.0 0.00 0.00 0.00 75 1016.1
20260507210016 64 12 0.0 5.0 0.00 0.00 0.00 77 1016.8
20260507204519 64 65 0.0 4.0 0.00 0.00 0.00 74 1017.4
20260507203025 64 234 0.0 6.0 0.00 0.00 0.00 76 1017.5
20260507201507 64 49 0.0 2.0 0.00 0.00 0.00 74 1017.8
20260507200012 63 360 1.0 2.0 0.00 0.00 0.00 74 1017.5
20260507194518 63 76 0.0 5.0 0.00 0.00 0.00 74 1018.3
20260507193021 63 86 0.0 6.0 0.00 0.00 0.00 74 1018.1
20260507191529 63 67 1.0 4.0 0.00 0.00 0.00 74 1018.3
20260507190018 62 165 0.0 4.0 0.00 0.00 0.00 75 1018.4
20260507184529 62 135 1.0 6.0 0.00 0.00 0.00 75 1018.0
20260507183036 62 22 0.0 6.0 0.00 0.00 0.00 76 1018.2
20260507181524 62 340 0.0 4.0 0.00 0.00 0.00 77 1018.5
20260507180037 62 63 0.0 5.0 0.00 0.00 0.00 74 1018.7
20260507174516 63 105 2.0 5.0 0.00 0.00 0.00 75 1018.2
20260507173017 62 360 1.0 5.0 0.00 0.00 0.00 78 1018.7
20260507171521 60 78 1.0 6.0 0.00 0.00 0.00 80 1018.3
20260507170010 59 236 0.0 5.0 0.00 0.00 0.00 82 1018.2
20260507164510 59 104 1.0 9.0 0.00 0.00 0.00 82 1018.7
20260507163014 59 105 1.0 6.0 0.00 0.00 0.00 82 1019.4
20260507161533 58 327 2.0 6.0 0.00 0.00 0.00 81 1020.6
20260507160010 58 60 0.0 8.0 0.00 0.00 0.00 81 1019.8
20260507154508 58 59 0.0 8.0 0.00 0.00 0.00 81 1019.8
20260507153015 58 73 1.0 4.0 0.00 0.00 0.00 82 1019.3
20260507151534 58 19 1.0 4.0 0.00 0.00 0.00 83 1020.2
20260507150024 58 73 0.0 4.0 0.00 0.00 0.00 84 1019.7
20260507144506 58 57 1.0 4.0 0.00 0.00 0.00 85 1019.8
20260507143023 58 360 1.0 4.0 0.00 0.00 0.00 86 1019.3
20260507141518 58 292 1.0 8.0 0.00 0.00 0.00 87 1019.3
20260507140022 58 169 0.0 10.0 0.00 0.00 0.00 87 1019.1
20260507134535 58 352 1.0 9.0 0.00 0.00 0.00 88 1018.7
20260507133011 58 311 1.0 9.0 0.00 0.00 0.00 88 1018.9
20260507131521 57 338 1.0 11.0 0.00 0.00 0.00 89 1018.8
20260507130029 57 334 1.0 11.0 0.00 0.00 0.00 89 1018.9
20260507124525 57 346 0.0 10.0 0.00 0.00 0.00 89 1018.7
20260507123028 57 313 1.0 8.0 0.00 0.00 0.00 88 1018.7
20260507121512 58 360 1.0 11.0 0.00 0.00 0.00 89 1018.5
20260507120017 58 42 1.0 4.0 0.00 0.00 0.00 88 1017.7
20260507114529 58 9 2.0 10.0 0.00 0.00 0.00 88 1017.7
20260507113026 58 360 1.0 5.0 0.00 0.00 0.00 88 1017.7
20260507111528 58 48 1.0 8.0 0.00 0.00 0.00 88 1017.9
20260507110017 58 20 1.0 8.0 0.00 0.00 0.00 88 1017.7
20260507104506 58 127 2.0 11.0 0.00 0.00 0.00 88 1017.9
20260507103005 58 272 1.0 8.0 0.00 0.00 0.00 88 1016.8
20260507101517 58 92 1.0 9.0 0.00 0.00 0.00 87 1017.3
20260507100015 58 113 0.0 6.0 0.00 0.00 0.00 88 1017.1
20260507094522 58 98 0.0 7.0 0.00 0.00 0.00 87 1017.7
20260507093004 58 51 0.0 3.0 0.00 0.00 0.00 87 1017.2
20260507091506 58 348 1.0 4.0 0.00 0.00 0.00 87 1017.4
20260507090012 58 96 1.0 6.0 0.00 0.00 0.00 87 1016.7
20260507084529 58 114 0.0 2.0 0.00 0.00 0.00 86 1016.3
20260507083020 58 54 0.0 8.0 0.00 0.00 0.00 86 1016.2
20260507081525 58 238 0.0 2.0 0.00 0.00 0.00 86 1016.6
20260507080011 59 311 0.0 2.0 0.00 0.00 0.00 86 1016.1
20260507074526 59 79 0.0 2.0 0.00 0.00 0.00 85 1015.8
20260507073020 59 166 1.0 5.0 0.00 0.00 0.00 85 1016.0
20260507071525 59 77 0.0 3.0 0.00 0.00 0.00 85 1015.9
20260507070010 59 133 0.0 4.0 0.00 0.00 0.00 84 1015.9
20260507064513 59 89 0.0 4.0 0.00 0.00 0.00 84 1015.7
20260507063017 60 117 0.0 3.0 0.00 0.00 0.00 83 1015.9
20260507061520 60 104 0.0 2.0 0.00 0.00 0.00 83 1015.7
20260507060023 60 74 0.0 2.0 0.00 0.00 0.00 83 1016.3
20260507054511 60 100 1.0 6.0 0.00 0.00 0.00 82 1015.7
20260507053016 60 278 1.0 5.0 0.00 0.00 0.00 82 1015.5
20260507051531 60 5 0.0 6.0 0.00 0.00 0.00 82 1015.5
20260507050024 61 326 0.0 4.0 0.00 0.00 0.00 82 1016.0
20260507044527 61 114 1.0 6.0 0.00 0.00 0.00 82 1015.9
20260507043012 61 61 0.0 9.0 0.00 0.00 0.00 82 1015.9
20260507041518 61 309 1.0 8.0 0.00 0.00 0.00 82 1015.8
20260507040002 61 28 1.0 6.0 0.00 0.00 0.00 83 1015.9
20260507034508 61 42 1.0 6.0 0.00 0.00 0.00 83 1015.7
20260507033011 61 342 0.0 3.0 0.00 0.00 0.00 84 1015.5
20260507031505 61 333 0.0 3.0 0.00 0.00 0.00 84 1015.6
20260507030004 61 187 1.0 8.0 0.00 0.00 0.00 83 1015.3
20260507024504 61 318 1.0 7.0 0.00 0.00 0.00 83 1015.5
20260507023008 61 16 1.0 4.0 0.00 0.00 0.00 83 1015.2